Regional Weather Roundup
Issued by NWS

Home | Current Version | Previous Version | Text Only | Print | Product List | Glossary Off
Versions: 1 2 3 4 5 6 7 8 9 10 11 12 13 14 15 16 17 18 19 20 21 22 23 24 25 26 27 28 29 30 31 32 33 34 35 36 37 38 39 40 41 42 43 44 45 46 47 48 49 50

000
ASUS44 KMEG 250310
RWRTN
TENNESSEE HOURLY STATE WEATHER ROUNDUP
NATIONAL WEATHER SERVICE MEMPHIS TN
1000 PM CDT FRI OCT 24 2014

TNZ002-004-019-021-049-052-054-088>092-250400-
WEST TENNESSEE

CITY           SKY/WX    TMP DP  RH WIND       PRES   REMARKS
MEMPHIS INTL   PTCLDY    61  55  81 CALM      30.09S
NWS MEMPHIS      N/A     56 N/A N/A MISG        N/A
JACKSON        CLEAR     52  50  93 CALM      30.09S
DYERSBURG      PTCLDY    55  45  67 CALM      30.10S
UNION CITY     CLEAR     52  50  93 CALM      30.07S
PARIS          CLEAR     46  46 100 CALM      30.09S
HUNTINGDON     CLEAR     49  48  96 CALM      30.10R
LEXINGTON      CLEAR     50  48  93 CALM      30.09R
SAVANNAH       CLEAR     48  48 100 CALM      30.11R
$$

TNZ008-025-027-028-033-062-065-066-250400-
NORTH MIDDLE TENNESSEE

CITY           SKY/WX    TMP DP  RH WIND       PRES   REMARKS
NASHVILLE      PTCLDY    53  48  83 CALM      30.10R
CLARKSVILLE    CLEAR     51  50  96 CALM      30.08S
SMYRNA         CLEAR     49  48  96 CALM      30.11R
COOKEVILLE     CLEAR     43  43 100 CALM      30.09R
CROSSVILLE     CLEAR     46  39  76 CALM      30.10R
$$

TNZ061-075-076-078-094-096-097-250400-
SOUTH MIDDLE TENNESSEE

CITY           SKY/WX    TMP DP  RH WIND       PRES   REMARKS
FAYETTEVILLE   CLEAR     54  43  66 NE5       30.10R
TULLAHOMA      CLEAR     46  43  87 CALM      30.10S
WINCHESTER     CLEAR     45  43  93 CALM      30.10S
MCMINNVILLE    CLEAR     46  45  93 CALM      30.09S
COLUMBIA       PTCLDY   N/A N/A N/A CALM      30.09S
SHELBYVILLE    CLEAR     48  46  93 CALM      30.11R
$$

TNZ017-018-042-046-047-250400-
NORTHEAST TENNESSEE

CITY           SKY/WX    TMP DP  RH WIND       PRES   REMARKS
TRI CITIES     CLEAR     44  41  89 CALM      30.07F
ELIZABETHTON   CLEAR     39  37  93 CALM      30.08S
$$

TNZ012-013-036-069-073-074-250400-
CENTRAL EAST TENNESSEE

CITY           SKY/WX    TMP DP  RH WIND       PRES   REMARKS
KNOXVILLE      CLEAR     51  44  77 CALM      30.07R
OAK RIDGE      CLEAR     49  46  90 CALM      30.11R
GATLINBURG     CLEAR     45  41  87 CALM      30.07R
MORRISTOWN     CLEAR     46  43  87 CALM      30.08R
$$

TNZ083-085-099-250400-
SOUTHEAST TENNESSEE

CITY           SKY/WX    TMP DP  RH WIND       PRES   REMARKS
CHATTANOOGA    PTCLDY    52  46  80 CALM      30.08R
$$

SKY/WX REPORTED AS FAIR MEANS FEW OR NO CLOUDS BELOW
12 THOUSAND FEET.




USA.gov is the U.S. government's official web portal to all federal, state and local government web resources and services.